Вернуться в каталог

STARLINK-30084

АктивенСвязьVLEO
NORAD 56825·PAYLOAD·🇺🇸 United States

Запущен Jun 4, 2023 с Cape Canaveral Space Force Station

Loading…

Ближайшие Пролёты (ближайшие 24 часа)

TLE

СвежийSource: CelesTrak SupGP

Эпоха: Sep 15, 2026, 02:24 UTC

1 56825C 23079C   26258.10048611  .00059753  00000+0  21649-2 0  2581
2 56825  43.0012 116.9966 0001617 279.1389 329.6440 15.27538407    11

Отслеживайте STARLINK-30084 в реальном времени с AllMySat

Download on the App Store